Theta_e
319 318 317 316 316 316 315 315 313 310 309 309 308 308 307 305 303 303 303 305 306 306 306 304 303 304 303 303 302 302 302 302 301 300 298 297 297 297 297 297 297 297 297 297 298 297 297 297 297 297 297 297
319 318 317 316 315 315 314 313 310 308 308 309 309 308 308 306 302 301 301 302 303 303 302 301 301 302 303 302 302 301 301 300 299 297 297 297 296 297 297 297 297 298 298 298 298 298 298 298 298 298 298 298
318 317 317 316 315 314 312 309 308 308 309 309 309 309 309 306 303 301 300 300 301 300 299 299 299 299 301 302 301 301 300 298 298 297 297 297 297 297 297 297 298 298 298 298 298 298 298 298 298 298 298 298
317 317 317 316 315 312 309 308 308 309 309 309 309 310 309 307 304 301 300 300 299 299 298 298 297 298 299 301 301 299 298 297 297 297 297 297 297 297 297 297 297 297 297 297 296 297 296 296 296 296 296 296
317 317 317 316 314 310 308 308 308 309 309 310 310 310 309 307 305 302 300 299 299 298 298 297 297 297 297 299 300 298 297 296 296 296 297 296 296 296 295 295 295 295 294 294 294 294 294 294 294 294 294 294
317 317 317 316 313 310 308 308 308 309 310 310 310 309 308 307 306 303 300 299 299 298 298 297 297 297 296 297 298 297 296 296 296 296 295 295 294 294 294 294 293 294 294 294 294 294 294 294 294 294 294 294
317 317 317 315 313 310 309 309 309 310 311 311 310 309 309 308 306 303 300 299 298 298 297 297 297 297 296 296 296 296 296 296 295 294 294 293 293 293 293 293 293 293 294 294 294 294 294 294 294 294 294 294
317 317 316 315 313 311 310 310 310 310 311 310 310 309 309 308 306 304 301 299 298 298 297 297 296 296 296 296 296 295 295 295 294 293 293 293 293 293 293 293 293 293 294 294 294 294 294 294 294 294 294 294
317 317 316 315 314 312 311 310 310 311 311 310 310 310 309 308 307 305 302 299 298 298 297 296 296 296 296 296 295 295 294 294 293 293 292 293 293 293 293 293 293 293 293 293 294 294 294 294 294 294 294 294
316 316 315 315 314 313 312 311 311 311 311 311 310 310 309 308 308 306 303 299 298 298 297 296 295 295 295 295 295 294 294 293 293 292 292 292 292 293 293 293 293 293 293 293 293 294 293 294 294 294 294 294
316 315 314 314 314 313 312 312 311 311 311 311 311 310 310 309 308 307 303 300 299 298 297 296 295 295 295 295 295 294 293 293 292 292 292 292 292 293 293 293 293 293 293 293 293 293 293 293 293 293 293 293
316 315 314 314 314 313 313 312 311 311 310 311 311 310 310 308 308 307 304 301 300 298 297 296 295 294 294 294 294 293 293 292 292 292 292 292 292 292 293 293 293 293 293 293 293 293 293 293 293 293 293 293
316 315 314 314 314 314 313 312 311 310 310 310 311 310 309 308 308 307 304 302 300 298 297 296 295 294 294 294 293 293 293 292 292 292 292 292 292 292 292 292 293 293 293 293 293 293 293 293 293 293 293 293
316 315 314 314 314 313 313 312 311 311 310 310 311 310 309 308 307 306 305 302 300 299 297 296 295 294 294 293 293 293 292 292 292 292 292 292 292 292 292 292 292 292 292 292 292 292 293 293 293 293 293 293
316 315 314 314 313 313 312 312 311 311 310 310 310 310 309 308 307 306 305 303 301 299 298 297 295 295 294 293 293 293 292 292 292 291 292 292 292 292 292 292 292 292 292 292 292 292 292 292 292 292 292 292
316 316 315 314 313 313 312 312 311 311 311 311 310 309 308 307 306 306 305 304 302 300 298 297 296 295 294 293 293 292 292 292 292 291 291 292 292 291 292 292 292 292 292 292 292 292 292 292 292 292 292 292
316 316 315 314 313 313 312 312 311 310 311 311 310 309 308 307 306 306 305 304 303 300 299 298 297 296 294 294 293 292 292 292 292 291 291 291 291 291 291 291 291 291 291 291 291 291 292 292 292 292 292 292
316 316 315 315 314 313 312 311 311 310 311 311 310 309 308 307 306 306 305 304 303 301 300 298 297 296 295 294 293 293 292 292 292 291 291 291 291 291 291 291 291 291 291 291 291 291 291 291 291 291 292 292
316 316 315 315 314 313 313 312 311 310 310 311 310 309 308 307 307 306 305 305 304 302 300 299 298 297 296 295 294 293 292 292 292 292 291 291 291 291 291 291 291 291 291 291 291 291 291 291 291 291 291 291
315 316 315 315 314 314 314 312 311 311 311 311 310 309 308 308 307 306 305 305 304 303 301 300 299 298 297 296 295 294 293 292 292 292 291 291 291 291 291 291 291 291 291 291 291 291 291 291 291 291 291 291
315 315 315 314 314 314 314 313 312 311 311 311 310 309 308 308 308 307 306 305 304 303 302 301 300 299 298 297 296 295 294 293 293 292 292 291 291 291 291 291 291 291 291 291 291 291 291 291 291 291 291 291
314 314 314 314 314 314 314 313 312 312 311 311 311 310 309 308 308 307 306 305 304 303 302 301 300 300 299 298 297 296 295 294 293 292 292 291 291 291 291 290 290 290 290 291 291 291 291 291 291 291 291 291
313 314 314 314 314 313 313 312 312 311 311 311 311 310 309 309 308 307 307 305 304 304 303 302 301 300 299 299 298 297 296 295 294 293 292 292 291 291 291 290 290 290 290 290 291 291 291 291 291 291 291 291
312 313 313 313 313 313 313 312 312 311 311 311 310 310 309 309 308 308 307 306 305 304 303 302 302 301 300 299 299 298 297 296 295 294 293 293 292 291 291 290 290 290 290 290 290 290 290 290 291 291 291 291
312 312 312 313 312 312 312 312 312 311 311 311 310 310 310 309 309 308 307 306 305 304 303 303 302 301 301 300 300 299 298 297 296 295 294 293 293 292 291 291 290 290 289 289 290 290 290 290 290 290 290 291
311 311 311 311 311 311 312 312 312 311 311 311 310 310 309 309 309 308 307 306 305 304 304 303 303 302 301 301 300 300 299 298 297 296 295 294 293 293 292 291 290 290 289 289 289 289 289 289 290 290 290 290
311 311 311 311 310 310 311 311 312 311 311 311 311 310 310 310 309 309 308 306 305 304 304 303 303 303 302 301 301 300 300 299 298 297 296 295 294 294 293 292 291 290 289 289 289 289 288 288 289 289 290 290
311 311 311 310 310 310 310 310 311 311 310 310 310 310 310 309 309 309 308 307 305 305 304 304 304 303 303 302 301 301 300 299 299 298 298 297 296 295 294 293 292 291 290 289 289 288 288 288 287 288 290 290
310 310 310 309 309 308 309 309 309 310 310 310 310 310 310 309 309 308 308 307 306 305 305 304 304 303 303 302 302 301 300 300 299 299 298 297 296 296 295 294 293 292 291 290 289 288 288 287 287 288 290 290
309 309 309 308 308 308 308 308 308 309 309 309 309 309 309 308 308 308 308 307 306 304 304 304 304 303 303 303 302 301 301 300 299 299 298 298 297 296 296 295 294 293 292 291 290 289 288 288 288 288 289 289
308 308 308 308 308 308 307 307 307 307 307 308 308 308 308 308 308 308 308 307 305 304 304 304 303 303 303 303 302 302 301 300 300 299 299 298 297 297 296 295 294 294 293 292 291 290 289 288 288 288 288 289
Wind_Speed
20 19 18 17 17 17 17 16 15 13 10 6 4 3 1 1 2 4 5 7 9 9 8 6 6 7 7 7 9 9 9 9 9 8 8 8 7 7 6 6 6 6 7 7 7 7 7 7 6 6 6 6
21 20 19 18 17 17 17 16 14 13 10 7 5 4 2 2 3 4 5 7 7 7 5 3 5 6 6 7 8 8 8 8 8 8 7 6 6 6 6 6 6 6 6 6 6 7 6 6 6 6 6 6
23 21 20 18 18 18 17 16 15 13 11 9 6 5 3 2 3 5 6 6 7 6 4 3 3 3 5 7 8 8 8 7 6 6 6 6 5 5 6 6 6 6 6 6 6 6 6 6 6 6 6 5
24 21 19 18 17 18 18 16 15 13 11 9 6 5 4 3 4 6 6 6 6 5 5 4 4 4 4 6 8 8 8 7 6 5 5 5 5 5 6 5 6 6 6 6 5 6 6 6 6 6 6 6
25 21 19 18 17 17 17 17 16 14 11 8 7 6 5 5 5 6 7 6 5 5 5 5 5 5 5 5 7 8 8 7 6 5 5 5 5 5 5 5 6 6 5 5 5 5 5 6 6 6 6 6
25 22 20 19 18 18 19 18 17 14 11 9 8 7 6 5 5 6 7 7 6 6 6 6 6 6 7 6 5 7 7 7 6 5 5 5 5 5 5 5 5 5 6 6 6 5 6 6 6 6 6 7
26 24 22 21 20 20 21 20 18 14 12 11 9 8 8 6 6 6 8 8 7 6 6 6 6 7 7 6 5 6 7 7 6 5 5 5 5 5 5 6 6 6 6 6 6 6 6 6 6 6 7 7
28 26 24 22 22 22 22 20 18 15 14 12 11 10 9 8 7 7 8 8 7 6 6 6 7 7 7 7 6 7 7 6 6 6 6 5 5 5 6 6 7 7 7 7 7 7 6 6 6 7 7 7
30 28 26 24 23 23 22 21 19 17 15 14 13 12 10 9 8 9 9 9 7 6 6 7 7 8 8 8 7 6 6 6 6 6 5 5 6 6 6 6 7 7 7 7 7 7 6 6 6 6 6 7
32 31 29 27 24 24 23 21 20 18 17 16 15 14 12 11 10 10 10 10 8 7 7 7 8 9 9 8 7 7 6 6 6 6 6 6 6 6 7 7 7 7 7 7 7 7 7 6 6 6 5 6
34 32 29 28 26 26 25 23 22 21 19 18 18 16 14 13 12 11 11 11 9 7 7 7 8 9 9 9 8 7 7 6 6 6 6 6 6 7 7 7 7 7 7 7 7 7 6 6 5 5 5 5
35 32 29 29 29 28 27 25 24 23 21 21 20 17 15 15 14 13 12 11 10 8 8 8 8 9 9 9 9 8 8 7 7 7 7 7 7 7 7 8 7 7 7 7 7 6 6 6 5 5 5 4
37 33 30 30 31 30 29 27 25 23 22 22 21 19 18 17 15 14 13 11 10 9 8 8 8 9 10 10 10 9 9 8 8 8 8 7 8 8 8 8 8 7 7 7 6 6 6 6 6 5 5 5
39 35 33 32 32 32 31 29 26 24 24 24 23 21 19 18 16 15 13 12 11 9 8 8 8 9 10 11 11 10 10 9 9 9 9 9 9 8 8 8 8 8 7 7 7 7 6 6 6 6 6 5
40 37 35 33 33 34 32 31 28 26 26 26 24 22 20 18 17 16 14 13 12 10 9 8 8 9 10 11 11 11 11 11 10 10 10 10 10 9 9 9 8 8 8 8 7 7 7 7 7 6 6 6
42 40 37 34 34 34 33 32 29 28 28 27 25 22 20 19 18 17 16 14 13 11 10 9 9 9 10 11 12 12 12 12 12 11 11 11 10 10 10 9 9 8 8 8 8 8 8 7 7 7 7 7
43 41 39 36 35 35 34 33 31 29 29 28 26 23 21 20 19 19 17 16 14 12 11 11 10 10 10 11 13 13 13 13 13 12 12 12 11 11 11 10 10 9 9 9 8 8 8 8 8 8 8 8
45 43 42 38 36 36 35 34 33 31 31 30 27 25 22 21 21 20 19 17 16 15 14 13 12 11 10 11 13 14 14 14 14 14 13 13 13 12 12 12 11 11 10 10 9 9 9 9 9 9 9 9
47 46 44 41 38 37 37 36 34 32 31 31 29 26 23 22 22 22 20 19 18 17 16 15 13 12 11 12 13 14 15 15 15 15 14 14 14 14 14 13 13 12 12 11 11 11 10 10 10 10 10 10
48 47 46 43 40 39 39 38 35 33 32 33 31 28 24 24 24 23 22 21 20 19 18 17 15 14 13 13 14 14 15 15 16 16 15 15 15 15 15 14 14 14 13 13 13 12 12 12 11 11 11 11
48 48 47 45 42 41 41 40 37 35 34 35 34 31 27 27 27 25 24 24 23 21 20 19 17 16 15 15 15 15 15 16 16 17 17 16 16 16 16 16 15 15 14 14 14 14 14 13 13 13 12 12
48 48 47 47 45 44 44 42 39 38 37 37 36 34 31 29 28 27 26 25 24 23 22 21 20 18 18 17 17 17 16 16 17 17 18 17 17 17 17 17 16 16 16 16 16 16 16 15 15 14 14 14
48 49 49 48 47 47 47 45 42 42 41 39 38 36 34 32 30 29 28 27 26 26 24 23 22 21 20 20 19 19 19 18 18 18 18 18 18 18 18 18 17 17 18 18 18 18 18 17 16 16 16 16
49 50 50 50 50 50 50 48 46 45 44 41 40 39 36 34 33 32 30 29 29 28 27 25 24 23 23 22 22 22 21 20 19 17 17 17 18 18 18 18 19 19 19 19 19 19 19 18 18 19 18 17
50 51 51 52 52 52 52 51 48 47 45 42 40 40 40 37 35 35 33 32 31 30 29 27 26 26 25 25 25 24 23 21 20 19 18 18 18 19 20 20 20 19 20 21 21 20 20 20 20 20 20 19
51 51 51 51 51 50 51 51 50 48 46 43 39 39 41 40 38 38 36 34 33 32 31 30 29 28 28 27 27 26 25 24 23 22 21 21 20 20 21 21 21 21 21 22 22 21 21 21 21 23 22 21
51 51 50 49 49 48 47 48 49 47 45 44 43 42 41 42 42 41 39 36 35 34 33 32 31 31 30 30 29 28 27 27 26 25 24 24 22 21 21 22 22 22 22 23 22 21 22 22 21 23 25 25
50 49 48 48 48 47 47 47 47 47 46 47 48 46 44 44 45 44 42 39 37 36 35 34 34 33 32 32 31 30 30 29 28 27 27 26 24 24 24 23 23 23 23 24 24 22 22 21 20 20 23 25
49 48 48 48 48 48 49 49 49 49 50 49 49 49 46 45 45 44 42 40 39 39 37 36 36 35 34 33 33 33 32 31 30 29 28 28 27 27 25 24 24 24 24 25 25 25 23 20 19 21 22 21
48 48 49 49 49 50 50 51 52 52 51 50 48 47 44 43 43 43 43 42 42 41 40 38 37 36 36 35 35 35 34 33 32 32 31 29 30 29 27 26 27 27 26 25 27 29 28 25 23 22 21 19
48 49 50 50 50 51 51 51 52 50 49 48 47 45 43 42 42 43 43 43 43 42 41 40 38 38 37 37 37 36 36 36 35 33 32 31 31 30 29 30 31 29 27 28 29 29 30 31 30 27 24 21
Wind_Direction
198 196 192 187 183 177 175 170 168 181 200 209 212 225 230 256 219 192 175 159 153 147 142 142 135 132 138 143 138 134 134 129 126 126 124 124 128 134 139 143 142 142 142 139 140 138 137 135 133 131 127 122
198 198 196 193 189 185 184 178 185 204 216 223 226 235 254 280 246 223 209 188 183 180 177 171 150 142 138 144 147 144 141 136 135 133 130 133 143 149 149 151 151 154 153 150 150 147 149 145 145 142 136 135
196 199 200 200 197 193 194 193 203 215 218 226 233 244 264 286 257 239 233 219 217 221 225 223 198 184 153 147 153 153 146 142 142 137 137 145 157 158 153 157 156 158 159 158 156 153 155 151 152 148 143 143
198 203 208 210 208 202 201 203 208 215 220 228 234 248 269 277 264 251 248 242 238 236 234 231 223 214 191 161 155 157 153 148 149 148 149 155 161 161 157 158 156 158 159 159 158 155 155 151 150 146 144 142
201 206 214 218 216 208 206 208 210 216 222 227 235 251 267 272 271 260 254 251 244 236 230 232 227 217 217 193 156 155 158 153 156 160 162 165 164 163 160 158 157 157 157 156 156 153 151 148 144 142 140 137
206 211 219 222 219 212 208 210 214 220 223 228 240 253 262 267 270 263 255 249 243 240 234 228 227 222 223 215 170 158 161 158 162 169 171 173 170 165 162 158 158 155 154 153 151 150 147 144 140 137 136 133
215 219 222 223 221 215 212 215 218 221 224 232 242 250 256 260 264 260 251 246 246 248 245 232 224 224 224 220 196 173 167 164 168 175 176 176 173 169 163 158 156 152 151 150 148 148 144 142 139 136 134 131
221 224 226 225 224 221 219 220 221 221 226 233 240 247 252 256 261 262 253 248 249 253 252 241 227 223 223 218 205 187 174 173 177 180 180 177 175 169 163 158 154 151 149 148 146 146 143 141 139 137 135 133
223 228 229 227 226 227 226 225 223 224 231 237 242 246 250 256 262 265 259 251 250 256 254 243 232 225 222 217 209 197 185 185 188 187 183 178 175 170 164 159 155 152 149 148 146 144 143 142 140 137 137 137
227 231 232 230 230 231 229 228 228 230 237 242 246 248 249 256 265 268 262 254 252 257 256 246 236 229 225 220 213 207 201 199 199 195 190 182 177 172 168 164 159 156 152 150 148 147 147 145 145 142 142 141
230 232 234 234 235 235 233 233 234 236 241 245 247 248 250 257 264 267 261 255 255 257 257 250 239 232 228 224 220 217 214 211 208 205 199 191 185 179 174 169 165 162 157 155 153 152 152 152 152 151 153 150
229 232 234 236 236 235 236 238 239 240 243 245 246 247 251 256 259 259 258 255 254 255 255 252 244 237 232 228 226 225 223 221 218 214 209 203 196 187 182 176 172 169 166 165 162 162 161 162 164 164 166 164
227 231 233 234 235 234 236 239 240 240 243 245 245 246 250 253 254 252 254 254 251 252 254 253 248 242 238 233 230 230 229 229 225 222 218 213 207 198 192 186 181 179 177 177 175 175 174 174 176 176 180 178
228 232 234 235 235 235 237 239 238 238 240 242 244 247 249 250 250 249 250 252 251 251 255 256 254 248 242 238 234 233 233 232 230 227 225 221 216 209 203 198 193 191 189 188 187 187 186 186 187 187 189 189
230 233 236 238 237 236 238 238 237 238 240 240 242 246 249 249 247 246 247 251 251 251 254 257 257 254 247 242 238 236 235 235 234 231 229 226 223 219 214 211 207 203 201 200 199 197 196 195 194 196 196 196
232 234 235 239 241 238 237 238 237 239 240 241 243 246 248 248 246 246 249 251 252 251 252 256 257 256 252 246 241 239 238 237 237 235 233 231 229 227 225 222 221 218 215 212 210 207 204 202 201 202 201 201
233 236 236 240 245 242 238 237 237 238 240 241 243 245 247 247 247 248 250 251 253 251 250 252 255 257 255 249 244 241 240 239 239 238 236 234 232 231 229 229 230 229 228 225 222 218 214 210 208 207 206 206
234 237 237 240 246 246 241 238 238 238 239 241 243 244 246 247 248 250 250 250 251 251 249 250 252 255 255 251 248 244 242 241 240 239 238 236 234 233 232 232 233 233 234 233 231 229 225 221 217 214 212 210
236 237 236 240 246 248 244 240 239 238 238 241 243 244 246 250 252 251 250 250 251 251 250 250 251 254 255 253 250 247 244 242 240 240 239 239 237 236 234 234 235 235 236 236 235 234 232 230 226 222 219 217
236 237 237 241 246 248 246 242 240 238 237 240 241 242 246 251 252 251 250 251 251 251 250 250 251 252 252 252 252 250 247 244 242 241 240 240 238 237 237 237 237 237 237 237 236 235 234 233 232 229 226 224
235 236 237 240 244 246 245 242 241 240 238 239 240 241 244 247 249 249 250 250 249 250 251 251 250 250 250 251 253 252 251 248 245 243 241 240 239 238 238 238 238 238 238 239 238 237 236 235 234 233 231 228
235 236 238 240 242 245 244 240 239 239 238 239 241 242 242 244 245 247 249 248 248 249 249 249 248 248 249 250 252 252 252 250 247 245 243 241 240 239 239 239 239 239 239 239 239 239 237 236 235 234 232 229
236 236 237 237 239 241 241 239 237 237 236 237 240 241 242 243 244 246 248 247 247 248 247 247 246 246 248 250 252 252 251 251 250 249 247 245 243 242 241 241 240 240 240 239 239 239 238 237 235 234 233 230
234 234 235 235 236 238 239 237 236 236 237 239 241 241 241 242 244 245 246 246 246 246 246 247 247 247 248 250 251 252 253 254 255 255 253 251 248 245 243 242 241 241 241 242 241 241 241 240 238 236 235 232
234 233 233 234 235 238 240 238 236 236 237 239 244 245 242 242 245 245 245 245 245 245 246 246 247 247 248 249 251 253 255 256 257 256 253 250 246 244 242 241 241 241 241 242 242 242 243 243 241 240 237 234
237 237 237 237 238 239 241 240 239 240 241 241 243 247 247 244 245 246 244 244 245 245 245 246 248 249 250 250 252 254 254 254 254 253 251 249 247 245 243 241 240 239 239 240 241 242 244 244 243 242 239 236
242 242 242 242 243 243 243 243 243 245 247 247 243 244 247 247 246 246 245 245 245 244 245 247 249 251 251 252 252 252 253 254 253 253 252 251 250 249 247 245 243 240 240 240 240 241 242 243 244 244 241 237
245 247 247 246 245 244 244 244 244 244 245 246 244 243 245 247 246 245 245 245 245 245 245 247 249 251 252 253 253 253 254 254 254 255 254 254 253 251 250 250 249 247 244 241 240 238 237 237 240 243 241 239
246 246 245 243 241 240 239 240 240 240 240 241 243 243 244 246 247 247 247 247 247 245 245 247 248 250 253 253 254 254 254 255 256 256 255 255 255 254 254 255 255 252 248 246 243 239 234 230 233 238 241 241
246 245 243 242 240 238 237 238 239 240 241 242 243 245 246 248 249 249 249 248 247 246 246 247 248 250 253 254 255 255 255 256 256 255 255 256 255 256 256 256 254 252 250 249 246 242 240 237 239 242 242 242
246 244 243 243 243 243 242 242 243 244 245 246 248 249 249 250 251 250 250 249 248 247 247 248 248 250 253 255 256 256 256 255 256 257 257 257 256 257 256 254 253 253 251 249 247 245 245 244 245 246 245 243